This is the latest recevied weather packets stored in our database for station/object HF3P-11. If no packets are shown the sender has not sent any weather packets the latest 1 day(s).
| Time | Temp. | Humidity | Pressure | Rain* | Wind** | Luminosity | Snow |
|---|---|---|---|---|---|---|---|
| 1778014801 | 21.11° C | 86% | 1000.2 hPa | 0 mm | 2.68 m/s, 35° | - | - |
| 1778014500 | 12.78° C | 86% | 1000.1 hPa | 0 mm | 2.68 m/s, 37° | - | - |
| 1778014200 | 12.78° C | 86% | 1000.2 hPa | 0 mm | 2.68 m/s, 30° | - | - |
| 1778013909 | 12.78° C | 86% | 1000.3 hPa | 0 mm | 2.68 m/s, 27° | - | - |
| 1778013600 | 12.78° C | 86% | 1000.2 hPa | 0 mm | 2.24 m/s, 36° | - | - |
| 1778013301 | 12.78° C | 86% | 1000.2 hPa | 0 mm | 2.24 m/s, 39° | - | - |
| 1778013001 | 12.78° C | 86% | 1000.4 hPa | 0 mm | 2.68 m/s, 31° | - | - |
| 1778012701 | 12.78° C | 86% | 1000.2 hPa | 0 mm | 2.24 m/s, 25° | - | - |
| 1778012409 | 12.78° C | 86% | 1000.4 hPa | 0 mm | 1.79 m/s, 25° | - | - |
| 1778012101 | 12.78° C | 86% | 1000 hPa | 0 mm | 2.24 m/s, 35° | - | - |
| 1778011809 | 12.78° C | 86% | 1000.2 hPa | 0 mm | 2.68 m/s, 45° | - | - |
| 1778011500 | 13.33° C | 86% | 1000.2 hPa | 0 mm | 2.68 m/s, 42° | - | - |
| 1778011209 | 13.33° C | 86% | 1000.2 hPa | 0 mm | 2.24 m/s, 39° | - | - |
| 1778010909 | 13.33° C | 86% | 1000.4 hPa | 0 mm | 2.24 m/s, 35° | - | - |
| 1778010611 | 13.33° C | 86% | 1000.4 hPa | 0 mm | 2.24 m/s, 32° | - | - |
| 1778010301 | 13.33° C | 85% | 1000.4 hPa | 0 mm | 2.68 m/s, 32° | - | - |
| 1778010001 | 13.33° C | 85% | 1000.4 hPa | 0 mm | 2.24 m/s, 37° | - | - |
| 1778009700 | 13.33° C | 85% | 1000.5 hPa | 0 mm | 2.24 m/s, 36° | - | - |
| 1778009400 | 13.33° C | 85% | 1000.4 hPa | 0 mm | 2.24 m/s, 30° | - | - |
| 1778009109 | 13.33° C | 84% | 1000.4 hPa | 0 mm | 2.24 m/s, 33° | - | - |
| 1778008801 | 13.33° C | 84% | 1000.4 hPa | 0 mm | 2.24 m/s, 32° | - | - |
| 1778008509 | 13.89° C | 83% | 1000.4 hPa | 0 mm | 2.24 m/s, 34° | - | - |
| 1778008220 | 13.89° C | 83% | 1000.5 hPa | 0 mm | 2.24 m/s, 41° | - | - |
| 1778007901 | 13.89° C | 82% | 1000.6 hPa | 0 mm | 2.24 m/s, 41° | - | - |
| 1778007611 | 13.89° C | 82% | 1000.5 hPa | 0 mm | 2.24 m/s, 36° | - | - |
* Rain latest hour (hover to see other rain measurements)
** Current wind speed in m/s (hover to see current wind gust speed)